Location: Newark
(51.0500°N, 12.4500°E)
Time: 02:22:06
(UTC+00:00)

A-11 Canister half - All Passes

Search period start: 23 February 2020 00:00
Search period end: 04 March 2020 00:00
Orbit: 1524 x 1684 km, 47.3° (Epoch: 22 February)

Date Brightness Start Highest point End Pass type
(mag) Time Alt. Az. Time Alt. Az. Time Alt. Az.
23 Feb - 07:57:14 10° SSW 08:04:59 29° SE 08:12:34 10° E daylight
23 Feb - 09:59:29 10° SW 10:08:40 59° SSE 10:17:43 10° E daylight
23 Feb - 12:03:52 10° W 12:13:09 71° S 12:22:23 10° ESE daylight
23 Feb - 14:08:40 10° W 14:17:28 50° SSW 14:26:18 10° SE daylight
23 Feb - 16:14:30 10° W 16:20:43 20° SW 16:27:00 10° S daylight
24 Feb - 07:35:48 10° S 07:43:25 28° SE 07:50:54 10° E daylight
24 Feb - 09:37:53 10° SW 09:47:04 58° SSE 09:56:06 10° E daylight
24 Feb - 11:42:14 10° W 11:51:32 71° S 12:00:47 10° ESE daylight
24 Feb - 13:47:01 10° W 13:55:52 51° SSW 14:04:45 10° SE daylight
24 Feb - 15:52:44 10° W 15:59:11 21° SW 16:05:41 10° S daylight
25 Feb - 07:14:23 10° S 07:21:52 27° SE 07:29:13 10° E daylight
25 Feb - 09:16:18 10° SW 09:25:28 57° SSE 09:34:28 10° E daylight
25 Feb - 11:20:36 10° W 11:29:55 72° S 11:39:09 10° E daylight
25 Feb - 13:25:23 10° W 13:34:17 52° SSW 13:43:12 10° SE daylight
25 Feb - 15:31:00 10° W 15:37:39 23° SW 15:44:21 10° S daylight
26 Feb - 06:52:58 10° S 07:00:18 26° SE 07:07:32 10° E daylight
26 Feb - 08:54:42 10° SW 09:03:52 56° SSE 09:12:51 10° E daylight
26 Feb - 10:58:57 10° W 11:08:18 72° S 11:17:32 10° E daylight
26 Feb - 13:03:44 10° W 13:12:42 54° SSW 13:21:38 10° SE daylight
26 Feb - 15:09:16 10° W 15:16:07 24° SW 15:22:59 10° S daylight
27 Feb - 06:31:34 10° S 06:38:45 25° SE 06:45:49 10° E daylight
27 Feb - 08:33:06 10° SW 08:42:16 54° SSE 08:51:14 10° E daylight
27 Feb - 10:37:20 10° W 10:46:41 72° S 10:55:55 10° E daylight
27 Feb - 12:42:07 10° W 12:51:06 55° SSW 13:00:03 10° SE daylight
27 Feb - 14:47:33 10° W 14:54:34 25° SW 15:01:37 10° S daylight
28 Feb - 06:10:11 10° S 06:17:13 24° SE 06:24:07 10° E daylight
28 Feb - 08:11:31 10° SW 08:20:40 53° SSE 08:29:36 10° E daylight
28 Feb - 10:15:41 10° W 10:25:04 72° S 10:34:18 10° E daylight
28 Feb - 12:20:28 10° W 12:29:31 56° SSW 12:38:30 10° SE daylight
28 Feb - 14:25:50 10° W 14:33:01 26° SW 14:40:15 10° S daylight
29 Feb - 05:48:49 10° S 05:55:40 22° SE 06:02:23 10° E daylight
29 Feb - 07:49:56 10° SW 07:59:04 52° SSE 08:07:59 10° E daylight
29 Feb - 09:54:03 10° WSW 10:03:27 72° S 10:12:41 10° E daylight
29 Feb - 11:58:49 10° W 12:07:55 58° SSW 12:16:55 10° SE daylight
29 Feb - 14:04:08 10° W 14:11:29 27° SW 14:18:50 10° S daylight
01 Mar - 05:27:27 10° S 05:34:07 21° SE 05:40:39 10° E daylight
01 Mar - 07:28:22 10° SW 07:37:29 51° SSE 07:46:22 10° E daylight
01 Mar - 09:32:24 10° WSW 09:41:51 71° S 09:51:04 10° E daylight
01 Mar - 11:37:11 10° W 11:46:19 59° SSW 11:55:21 10° SE daylight
01 Mar - 13:42:27 10° W 13:49:56 28° SW 13:57:26 10° SSE daylight
02 Mar - 05:06:07 10° S 05:12:34 20° SE 05:18:54 10° E visible
02 Mar - 07:06:47 10° SW 07:15:53 49° SSE 07:24:44 10° E daylight
02 Mar - 09:10:46 10° WSW 09:20:12 71° S 09:29:27 10° E daylight
02 Mar - 11:15:33 10° W 11:24:43 60° SSW 11:33:45 10° ESE daylight
02 Mar - 13:20:46 10° W 13:28:23 30° SW 13:36:00 10° SSE daylight
03 Mar - 04:44:48 10° S 04:51:02 19° SE 04:57:08 10° E visible
03 Mar - 06:45:13 10° SW 06:54:17 48° SSE 07:03:07 10° E daylight
03 Mar - 08:49:07 10° WSW 08:58:36 71° S 09:07:50 10° E daylight
03 Mar - 10:53:54 10° W 11:03:07 61° SSW 11:12:11 10° ESE daylight
03 Mar - 12:59:04 10° W 13:06:50 31° SW 13:14:35 10° SSE daylight
